KO4IEJ Weather Reports


time (UTC)temp
C
wind
direction
speed
KPH
gust
KPH
rain 1hr
cm
rain 24hr
cm
rain mn
cm
humidity
%
barometer
mb
20260505083102 3 0 0.0 1.6 0.00 0.00 0.00 80 1013.8
20260505081602 3 0 0.0 0.0 0.00 0.00 0.00 79 1013.8
20260505080055 3 0 0.0 1.6 0.00 0.00 0.00 79 1013.7
20260505074559 3 8 0.0 1.6 0.00 0.00 0.00 78 1014.2
20260505073059 3 0 0.0 0.0 0.00 0.00 0.00 75 1014.3
20260505071607 3 8 0.0 1.6 0.00 0.00 0.00 74 1014.3
20260505070052 3 8 0.0 1.6 0.00 0.00 0.00 74 1014.2
20260505064558 4 8 0.0 1.6 0.00 0.00 0.00 73 1014.2
20260505063050 5 354 0.0 1.6 0.00 0.00 0.00 73 1014.2
20260505061602 5 355 0.0 3.2 0.00 0.00 0.00 70 1014.1
20260505060059 6 0 0.0 1.6 0.00 0.00 0.00 67 1014.2
20260505054555 6 69 0.0 1.6 0.00 0.00 0.00 65 1014.3
20260505053057 7 0 0.0 1.6 0.00 0.00 0.00 64 1014.2
20260505051550 7 106 0.0 1.6 0.00 0.00 0.00 64 1014.2
20260505041554 7 4 0.0 1.6 0.00 0.00 0.00 58 1014.2
20260505040057 8 0 0.0 1.6 0.00 0.00 0.00 61 1014.1
20260505034550 8 0 0.0 1.6 0.00 0.00 0.00 60 1014.0
20260505033110 9 0 0.0 9.7 0.00 0.00 0.00 53 1013.8
20260505031552 8 314 0.0 1.6 0.00 0.00 0.00 59 1013.6
20260505030055 8 342 1.6 3.2 0.00 0.00 0.00 58 1013.4
20260505024552 8 0 0.0 1.6 0.00 0.00 0.00 59 1013.6
20260505023100 8 323 0.0 1.6 0.00 0.00 0.00 59 1013.3
20260505021555 9 0 0.0 1.6 0.00 0.00 0.00 57 1012.8
20260505020053 10 107 0.0 1.6 0.00 0.00 0.00 55 1012.7
20260505014554 10 105 0.0 1.6 0.00 0.00 0.00 55 1012.4
20260505013051 10 0 0.0 3.2 0.00 0.00 0.00 54 1012.2
20260505011559 11 0 0.0 4.8 0.00 0.00 0.00 51 1012.1
20260505010054 12 0 0.0 1.6 0.00 0.00 0.00 45 1011.9
20260505004558 12 0 0.0 3.2 0.00 0.00 0.00 43 1011.9
20260505003048 12 0 3.2 8.0 0.00 0.00 0.00 41 1012.1
20260505001554 13 298 0.0 8.0 0.00 0.00 0.00 43 1012.1
20260505000101 13 0 0.0 4.8 0.00 0.00 0.00 41 1012.3
20260504234615 13 96 4.8 14.5 0.00 0.00 0.00 39 1012.1
20260504233056 13 45 3.2 9.7 0.00 0.00 0.00 39 1012.1
20260504231559 13 302 3.2 8.0 0.00 0.00 0.00 40 1012.0
20260504230100 13 313 1.6 8.0 0.00 0.00 0.00 40 1011.9
20260504224603 13 359 3.2 8.0 0.00 0.00 0.00 38 1012.1
20260504223056 14 4 3.2 9.7 0.00 0.00 0.00 39 1012.1
20260504221601 14 0 0.0 19.3 0.00 0.00 0.00 39 1012.2
20260504220055 13 34 3.2 9.7 0.00 0.00 0.00 40 1012.7
20260504214555 13 255 4.8 11.3 0.00 0.00 0.00 41 1012.9
20260504213103 13 0 1.6 9.7 0.00 0.00 0.00 40 1013.5
20260504211553 14 141 6.4 11.3 0.00 0.00 0.00 38 1013.3
20260504204636 13 281 1.6 9.7 0.00 0.00 0.00 40 1014.1
20260504203052 13 238 1.6 6.4 0.00 0.00 0.00 40 1014.2
20260504201554 14 159 1.6 8.0 0.00 0.00 0.00 42 1014.3
20260504194556 13 304 6.4 22.5 0.00 0.00 0.00 40 1014.6
20260504193055 13 6 4.8 22.5 0.00 0.00 0.00 45 1014.6
20260504191554 12 322 3.2 27.4 0.00 0.00 0.00 45 1014.7
20260504190059 12 42 3.2 20.9 0.00 0.00 0.00 53 1014.9
20260504184604 15 270 3.2 17.7 0.00 0.00 0.00 35 1014.6
20260504183100 13 224 4.8 20.9 0.00 0.00 0.00 40 1014.9
20260504181557 13 85 6.4 20.9 0.00 0.00 0.00 40 1015.2
20260504180055 13 45 4.8 20.9 0.00 0.00 0.00 39 1015.3
20260504174557 13 97 3.2 14.5 0.00 0.00 0.00 39 1015.7
20260504173053 13 325 4.8 19.3 0.00 0.00 0.00 38 1015.5
20260504171559 13 303 6.4 19.3 0.00 0.00 0.00 38 1015.6